[[{"header":{"parameterUnit":"m.s-1","parameterCategory":1,"la1":30.2991,"la2":30.254,"lo1":-89.0895,"lo2":-89.0444,"dy":0.0017,"dx":0.0017,"nx":28,"ny":28,"refTime":"2025-12-14T09:00:00:Z","depth":0,"parameterNumber":2,"parameterNumberName":"U-component_of_WINDS"},"data":[0,0,0,0,0,0,0,0,0,0,0,0,0,0,0,0,0,0,0,0,0,0,0,0,0,0,0,0,0,0,0,0,0,0,0,0,0,0,0,0,0,0,0,0,0,0,0,0,0,0,0,0,0,0,0,0,0,0,-1.3485,-1.3485,0,-1.3511,-1.3511,-1.3511,-1.3484,-1.3483,-1.3482,-1.3481,-1.3508,-1.3509,-1.3511,0,0,0,0,0,0,0,0,0,0,0,0,0,-1.3412,-1.3414,-1.3485,-1.3485,-1.3486,-1.3511,-1.3511,-1.3511,-1.3484,-1.3483,-1.3481,-1.348,-1.3507,-1.3509,-1.3511,0,0,0,0,0,0,0,0,0,0,0,0,0,-1.3441,-1.3414,-1.3485,-1.3475,-1.3474,-1.3511,-1.3511,-1.3512,-1.3484,-1.3483,-1.3481,-1.348,-1.3506,-1.3509,-1.3511,-1.3559,0,0,-1.3519,-1.352,0,0,0,0,0,0,0,0,-1.344,-1.3444,-1.3476,-1.3476,-1.3475,-1.3492,-1.3495,-1.3528,-1.3485,-1.3481,-1.3481,-1.3479,-1.3504,-1.3507,-1.3515,-1.356,-1.3562,-1.352,-1.3521,-1.3522,-1.3523,0,0,0,0,0,0,0,-1.3438,-1.3443,-1.3495,-1.3477,-1.3476,-1.3469,-1.3472,-1.3501,-1.3501,-1.3481,-1.3479,-1.3482,-1.3503,-1.3513,-1.3515,-1.3562,-1.3519,-1.3522,-1.3523,-1.3524,-1.3647,-1.3648,0,0,0,0,0,0,-1.3437,-1.3441,-1.3494,-1.3496,-1.3453,-1.3472,-1.3474,-1.3489,-1.35,-1.3501,-1.3483,-1.3481,-1.3509,-1.3512,-1.3516,-1.3573,-1.3522,-1.3525,-1.3526,-1.3645,-1.3647,-1.3649,0,0,0,0,0,0,-1.3435,-1.3442,-1.3493,-1.3468,-1.3474,-1.3475,-1.3491,-1.349,-1.3499,-1.3503,-1.3502,-1.3493,-1.3508,-1.3513,-1.3548,-1.3573,-1.3526,-1.3528,-1.3643,-1.3646,-1.3648,-1.3686,0,0,0,0,0,0,-1.3433,-1.3442,-1.346,-1.3469,-1.3476,-1.3526,-1.3492,-1.3491,-1.3503,-1.35,-1.3511,-1.3512,-1.3507,-1.3545,-1.3551,-1.3576,-1.353,-1.3641,-1.3644,-1.3647,-1.3683,-1.369,-1.3695,0,0,0,0,0,-1.3431,-1.347,-1.3461,-1.3468,-1.3499,-1.3527,-1.3531,-1.3524,-1.3506,-1.3524,-1.3526,-1.3511,-1.3569,-1.3549,-1.3555,-1.3581,-1.3639,-1.3643,-1.3647,-1.368,-1.3688,-1.3695,0,0,0,0,0,0,-1.3465,-1.3471,-1.3461,-1.3504,-1.3515,-1.3522,-1.3545,-1.3534,-1.3551,-1.3547,-1.3538,-1.3541,-1.3579,-1.3583,-1.3561,-1.3628,-1.3601,-1.3607,-1.3624,-1.3632,-1.3638,-1.3637,-1.3532,0,0,0,0,0,-1.3477,-1.3499,-1.3504,-1.3541,-1.3547,-1.3545,-1.3557,-1.3551,-1.3562,-1.3567,-1.3572,-1.3583,-1.3604,-1.3618,-1.3637,-1.3682,-1.3684,-1.3704,-1.371,-1.3715,-1.372,-1.3744,-1.3753,-1.3662,-1.3662,-1.3662,0,0,-1.3503,-1.3509,-1.3524,-1.3548,-1.3556,-1.3579,-1.355,-1.3576,-1.3593,-1.3571,-1.3605,-1.3609,-1.3621,-1.3662,-1.368,-1.3667,-1.3746,-1.372,-1.3724,-1.3727,-1.3749,-1.3758,-1.3765,-1.3664,-1.3664,-1.3663,0,0,-1.3562,-1.3569,-1.3601,-1.3609,-1.3621,-1.3619,-1.3627,-1.3635,-1.3637,-1.3671,-1.3654,-1.3675,-1.371,-1.372,-1.3729,-1.379,-1.3777,-1.3796,-1.3831,-1.3854,-1.3861,-1.3868,-1.3889,-1.3897,-1.3801,-1.3801,-1.3801,0,-1.3593,-1.3628,-1.3619,-1.3646,-1.3657,-1.3637,-1.3669,-1.3677,-1.3695,-1.3703,-1.3688,-1.3732,-1.3739,-1.3781,-1.3796,-1.3804,-1.3812,-1.3796,-1.3861,-1.3867,-1.3873,-1.3894,-1.3902,-1.3804,-1.3803,-1.3803,-1.3803,0,-1.3665,-1.3689,-1.3713,-1.3731,-1.3744,-1.3773,-1.3769,-1.3783,-1.3775,-1.3775,-1.3809,-1.3816,-1.3837,-1.3846,-1.3839,-1.3887,-1.3878,-1.3862,-1.3835,-1.3884,-1.3903,-1.3911,-1.3807,-1.3806,-1.3805,-1.3805,0,0,-1.3748,-1.3759,-1.3768,-1.3775,-1.3786,-1.3804,-1.3832,-1.3851,-1.3864,-1.3876,-1.39,-1.393,-1.3914,-1.3925,-1.3918,-1.3939,-1.3986,-1.392,-1.392,-1.3932,-1.404,-1.4052,-1.4062,-1.3977,-1.3979,-1.398,-1.4039,0,-1.3808,-1.3857,-1.3849,-1.3896,-1.3918,-1.3899,-1.3923,-1.3932,-1.3932,-1.3951,-1.395,-1.3972,-1.395,-1.3956,-1.3975,-1.3977,-1.4008,-1.3972,-1.3999,-1.4,-1.3998,-1.4072,-1.4086,-1.4141,-1.4046,-1.4047,-1.4048,0,-1.3885,-1.39,-1.3949,-1.3955,-1.3964,-1.3986,-1.4003,-1.402,-1.403,-1.4028,-1.4039,-1.4029,-1.4056,-1.4028,-1.4066,-1.4042,-1.4052,-1.4054,-1.4056,-1.4059,-1.4028,-1.4078,-1.4159,-1.4167,-1.406,-1.4059,-1.4058,0,-1.3941,-1.3973,-1.4006,-1.4013,-1.4021,-1.4037,-1.4041,-1.4049,-1.4061,-1.4075,-1.4082,-1.4099,-1.4109,-1.4122,-1.4116,-1.4096,-1.4155,-1.4127,-1.4155,-1.4155,-1.4169,-1.4169,-1.4254,-1.4175,-1.4174,-1.4174,-1.4174,0,-1.401,-1.4041,-1.4032,-1.4052,-1.4086,-1.4076,-1.411,-1.4112,-1.4118,-1.4139,-1.4123,-1.4142,-1.4133,-1.4151,-1.4147,-1.4179,-1.4183,-1.4183,-1.4181,-1.4185,-1.4185,-1.4192,-1.4188,-1.4176,-1.4176,-1.4176,-1.4175,0,-1.4079,-1.4074,-1.4109,-1.4113,-1.4115,-1.414,-1.4144,-1.4163,-1.4161,-1.4187,-1.4192,-1.4189,-1.421,-1.4205,-1.4228,-1.4225,-1.4265,-1.4259,-1.4262,-1.4261,-1.429,-1.4287,-1.4383,-1.4395,-1.4308,-1.4308,-1.4309,0,-1.4123,-1.4147,-1.4153,-1.4165,-1.417,-1.4191,-1.4202,-1.4192,-1.4205,-1.4217,-1.4234,-1.4254,-1.4269,-1.4303,-1.4303,-1.4321,-1.4315,-1.4347,-1.4317,-1.432,-1.4315,-1.4314,-1.4317,-1.4353,-1.4354,-1.4355,-1.4356,0,-1.4203,-1.4199,-1.4216,-1.4232,-1.4246,-1.4258,-1.4268,-1.4279,-1.427,-1.4285,-1.4306,-1.4318,-1.4341,-1.436,-1.4376,-1.438,-1.4366,-1.4365,-1.4372,-1.4377,-1.4378,-1.4378,-1.4279,-1.4363,-1.4362,-1.4362,-1.4361,-1.4361,-1.4261,-1.4281,-1.4288,-1.4307,-1.4314,-1.4324,-1.4342,-1.4341,-1.4359,-1.4376,-1.4369,-1.4393,-1.4401,-1.442,-1.4426,-1.4445,-1.4433,-1.4443,-1.4446,-1.4449,-1.4453,-1.4374,-1.4447,-1.4447,-1.4447,-1.4447,-1.4447,0,-1.434,-1.4344,-1.4361,-1.4376,-1.4391,-1.4376,-1.4386,-1.44,-1.4421,-1.4429,-1.4444,-1.4468,-1.4486,-1.4487,-1.4504,-1.4518,-1.4513,-1.4523,-1.4523,-1.4524,-1.4463,-1.4455,-1.4528,-1.4528,-1.4528,-1.4528,-1.4528,-1.4528,-1.4383,-1.4415,-1.4412,-1.4447,-1.445,-1.4473,-1.448,-1.4489,-1.4495,-1.4522,-1.4537,-1.4537,-1.4542,-1.4559,-1.4575,-1.4575,-1.4582,-1.4595,-1.4593,-1.4536,-1.4528,-1.452,-1.4513,-1.4597,-1.4597,-1.4652,-1.4652,-1.4653]},{"header":{"parameterUnit":"m.s-1","parameterCategory":1,"la1":30.2991,"la2":30.254,"lo1":-89.0895,"lo2":-89.0444,"dy":0.0017,"dx":0.0017,"nx":28,"ny":28,"refTime":"2025-12-14T09:00:00:Z","depth":0,"parameterNumber":3,"parameterNumberName":"V-component_of_WINDS"},"data":[0,0,0,0,0,0,0,0,0,0,0,0,0,0,0,0,0,0,0,0,0,0,0,0,0,0,0,0,0,0,0,0,0,0,0,0,0,0,0,0,0,0,0,0,0,0,0,0,0,0,0,0,0,0,0,0,0,0,-9.5846,-9.5847,0,-9.5971,-9.5972,-9.5973,-9.5918,-9.5915,-9.5912,-9.5909,-9.6028,-9.6034,-9.604,0,0,0,0,0,0,0,0,0,0,0,0,0,-9.5553,-9.5558,-9.5846,-9.5847,-9.5849,-9.597,-9.5972,-9.5974,-9.5918,-9.5915,-9.5911,-9.5907,-9.6026,-9.6033,-9.6041,0,0,0,0,0,0,0,0,0,0,0,0,0,-9.5679,-9.556,-9.5846,-9.5836,-9.5837,-9.597,-9.5972,-9.5974,-9.5919,-9.5914,-9.591,-9.5906,-9.6024,-9.6033,-9.6042,-9.6189,0,0,-9.6069,-9.6073,0,0,0,0,0,0,0,0,-9.5672,-9.5689,-9.5836,-9.5837,-9.5838,-9.5924,-9.5912,-9.6046,-9.592,-9.5888,-9.5909,-9.5903,-9.5997,-9.6008,-9.6041,-9.6195,-9.62,-9.607,-9.6076,-9.6079,-9.6082,0,0,0,0,0,0,0,-9.5663,-9.5684,-9.5895,-9.5838,-9.5839,-9.5823,-9.5836,-9.5938,-9.5966,-9.589,-9.5886,-9.5902,-9.5996,-9.6032,-9.6043,-9.6202,-9.607,-9.6078,-9.6083,-9.6087,-9.6484,-9.6489,0,0,0,0,0,0,-9.5655,-9.5677,-9.5891,-9.5899,-9.5742,-9.5832,-9.5847,-9.5901,-9.5965,-9.597,-9.5906,-9.5899,-9.6019,-9.6033,-9.6047,-9.6226,-9.6079,-9.6088,-9.6093,-9.6479,-9.6485,-9.6491,0,0,0,0,0,0,-9.5649,-9.5675,-9.5886,-9.5787,-9.5813,-9.5842,-9.5904,-9.5906,-9.5942,-9.5977,-9.5981,-9.5938,-9.6016,-9.6035,-9.6155,-9.6229,-9.6092,-9.61,-9.6473,-9.6481,-9.6488,-9.6583,0,0,0,0,0,0,-9.5641,-9.5673,-9.5731,-9.5789,-9.5818,-9.5994,-9.5908,-9.5912,-9.5959,-9.5951,-9.6008,-9.6013,-9.6014,-9.6142,-9.6164,-9.6239,-9.6107,-9.6466,-9.6476,-9.6486,-9.6573,-9.6593,-9.661,0,0,0,0,0,-9.5631,-9.5751,-9.5734,-9.576,-9.5892,-9.5999,-9.6015,-9.6016,-9.5965,-9.6022,-9.6045,-9.6012,-9.6217,-9.6155,-9.6179,-9.6258,-9.6462,-9.6474,-9.6485,-9.6565,-9.6589,-9.6609,0,0,0,0,0,0,-9.5697,-9.5758,-9.574,-9.5883,-9.5937,-9.5989,-9.6062,-9.6041,-9.6107,-9.6097,-9.6092,-9.6106,-9.6231,-9.6256,-9.6186,-9.6405,-9.6331,-9.6348,-9.6384,-9.6407,-9.6425,-9.6416,-9.6115,0,0,0,0,0,-9.5729,-9.5814,-9.5861,-9.5982,-9.601,-9.6032,-9.6078,-9.6074,-9.6128,-9.615,-9.6181,-9.6233,-9.6309,-9.6359,-9.6431,-9.6576,-9.6588,-9.6642,-9.6661,-9.6675,-9.669,-9.677,-9.6795,-9.6529,-9.6529,-9.6528,0,0,-9.5794,-9.5838,-9.5891,-9.5996,-9.6037,-9.6123,-9.6051,-9.6144,-9.6207,-9.6163,-9.628,-9.6305,-9.6362,-9.6496,-9.6557,-9.6521,-9.6766,-9.669,-9.6702,-9.6708,-9.6784,-9.6809,-9.6832,-9.6536,-9.6535,-9.6534,0,0,-9.5958,-9.6,-9.6106,-9.615,-9.6214,-9.6228,-9.6254,-9.631,-9.6326,-9.6445,-9.6414,-9.6487,-9.6619,-9.6661,-9.67,-9.6882,-9.6854,-9.6905,-9.7,-9.7078,-9.7099,-9.7117,-9.7183,-9.7207,-9.692,-9.692,-9.692,0,-9.603,-9.6161,-9.6162,-9.626,-9.6307,-9.6275,-9.6382,-9.6422,-9.6506,-9.6538,-9.6498,-9.6664,-9.6699,-9.6844,-9.6889,-9.6921,-9.6949,-9.6899,-9.7096,-9.7115,-9.7132,-9.7195,-9.7219,-9.6926,-9.6925,-9.6925,-9.6924,0,-9.6247,-9.6338,-9.6416,-9.6502,-9.6558,-9.6659,-9.6674,-9.673,-9.6722,-9.6739,-9.686,-9.6902,-9.6983,-9.7017,-9.7008,-9.7161,-9.7137,-9.7097,-9.7023,-9.7164,-9.7222,-9.7246,-9.6935,-9.6932,-9.6931,-9.6929,0,0,-9.6455,-9.6543,-9.6571,-9.6611,-9.668,-9.6749,-9.6849,-9.6931,-9.698,-9.7038,-9.7121,-9.7234,-9.7198,-9.7242,-9.7238,-9.7306,-9.7449,-9.7257,-9.7259,-9.7292,-9.762,-9.7651,-9.7679,-9.7431,-9.7435,-9.7439,-9.7616,0,-9.6625,-9.6803,-9.6808,-9.697,-9.7055,-9.7026,-9.7112,-9.7163,-9.7183,-9.7255,-9.7275,-9.7356,-9.7302,-9.7329,-9.7395,-9.7418,-9.7515,-9.7405,-9.7506,-9.751,-9.7494,-9.771,-9.7742,-9.7907,-9.7639,-9.7643,-9.7646,0,-9.6846,-9.6917,-9.7089,-9.7148,-9.7184,-9.7262,-9.7339,-9.7409,-9.7465,-9.7475,-9.7526,-9.7512,-9.7611,-9.7535,-9.7672,-9.7597,-9.7639,-9.7656,-9.7663,-9.7673,-9.7587,-9.7726,-9.796,-9.7985,-9.7682,-9.7679,-9.7676,0,-9.6982,-9.7119,-9.724,-9.7275,-9.7347,-9.7403,-9.7435,-9.7487,-9.7537,-9.7603,-9.7635,-9.7711,-9.7752,-9.781,-9.7816,-9.776,-9.7955,-9.7878,-9.7964,-9.7964,-9.8007,-9.8004,-9.8251,-9.8033,-9.8032,-9.8032,-9.8031,0,-9.7172,-9.7278,-9.7303,-9.7378,-9.7496,-9.75,-9.7616,-9.7643,-9.769,-9.7768,-9.7746,-9.7819,-9.7822,-9.7897,-9.7901,-9.8015,-9.8033,-9.8042,-9.8043,-9.8045,-9.8044,-9.8073,-9.8061,-9.8038,-9.8037,-9.8036,-9.8034,0,-9.7344,-9.7365,-9.7495,-9.7554,-9.7571,-9.7656,-9.7705,-9.7775,-9.7793,-9.7892,-9.7915,-9.7943,-9.8029,-9.8041,-9.8141,-9.8144,-9.8281,-9.8268,-9.8263,-9.8261,-9.8347,-9.8339,-9.8622,-9.866,-9.8416,-9.8418,-9.842,0,-9.7463,-9.7546,-9.7615,-9.7667,-9.7703,-9.7787,-9.7839,-9.7846,-9.79,-9.7973,-9.8034,-9.8119,-9.8187,-9.8326,-9.8353,-9.843,-9.8419,-9.8513,-9.8431,-9.8431,-9.8422,-9.8418,-9.8426,-9.8529,-9.8532,-9.8534,-9.8536,0,-9.7674,-9.7682,-9.7759,-9.7842,-9.7905,-9.7969,-9.8029,-9.8072,-9.8086,-9.8148,-9.8238,-9.8292,-9.8396,-9.848,-9.8556,-9.8586,-9.8564,-9.8562,-9.8586,-9.859,-9.8584,-9.8589,-9.8308,-9.8555,-9.8553,-9.8552,-9.8551,-9.855,-9.7825,-9.7897,-9.7958,-9.8045,-9.8092,-9.815,-9.822,-9.8248,-9.8324,-9.8412,-9.841,-9.8509,-9.8564,-9.8665,-9.87,-9.8776,-9.8745,-9.878,-9.8789,-9.8798,-9.8807,-9.8572,-9.879,-9.8789,-9.8789,-9.8788,-9.8788,0,-9.8036,-9.8074,-9.8155,-9.8242,-9.8311,-9.8287,-9.8352,-9.841,-9.8499,-9.8554,-9.8623,-9.8727,-9.8809,-9.8843,-9.8923,-9.8978,-9.8969,-9.8998,-9.8995,-9.9002,-9.8829,-9.8801,-9.9004,-9.9004,-9.9004,-9.9004,-9.9004,-9.9004,-9.8153,-9.8275,-9.829,-9.8434,-9.8471,-9.8571,-9.8611,-9.8663,-9.8707,-9.8825,-9.8895,-9.8918,-9.8965,-9.9048,-9.9122,-9.913,-9.9161,-9.9195,-9.9198,-9.9036,-9.9014,-9.8993,-9.8967,-9.9201,-9.9202,-9.9365,-9.9366,-9.9367]}]]